Location: State Camp
(41.2367°N, 77.7828°W)
Time: 14:36:33
(UTC-04:00)

ADEOS Rocket - Visible Passes

Search period start: 26 August 2016 00:00
Search period end: 05 September 2016 00:00
Orbit: 859 x 1306 km, 98.7° (Epoch: 26 August)

Date Brightness Start Highest point End Pass type
(mag) Time Alt. Az. Time Alt. Az. Time Alt. Az.
26 Aug 4.2 05:01:30 10° NNE 05:09:08 60° E 05:16:44 10° S visible
27 Aug 5.3 04:13:25 10° NE 04:19:55 28° E 04:26:19 10° SSE visible
27 Aug 3.7 05:58:06 10° N 06:05:42 63° WNW 06:13:17 10° SSW visible
28 Aug 6.0 03:27:42 10° ENE 03:30:15 12° E 03:32:47 10° ESE visible
28 Aug 4.0 05:09:11 10° NNE 05:16:56 68° ESE 05:24:35 10° S visible
29 Aug 5.1 04:20:57 10° NNE 04:27:47 32° E 04:34:28 10° SSE visible
29 Aug 3.8 06:05:55 10° N 06:13:26 55° WNW 06:20:52 10° SW visible
30 Aug 5.9 03:34:24 10° NE 03:38:11 14° E 03:41:55 10° ESE visible
30 Aug 3.8 05:16:55 10° NNE 05:24:44 76° ESE 05:32:23 10° S visible
31 Aug 4.9 04:28:32 10° NNE 04:35:38 37° E 04:42:33 10° SSE visible
01 Sep 5.9 03:41:29 10° NE 03:46:06 17° E 03:50:38 10° ESE visible
01 Sep 3.7 05:24:40 10° NNE 05:32:31 86° ESE 05:40:09 10° SSW visible
02 Sep 4.7 04:36:10 10° NNE 04:43:29 42° E 04:50:33 10° SSE visible
03 Sep 5.7 03:48:45 10° NE 03:54:01 19° E 03:59:08 10° SE visible
03 Sep 3.6 05:32:26 10° NNE 05:40:17 85° WNW 05:47:50 10° SSW visible
04 Sep 4.4 04:43:50 10° NNE 04:51:20 48° E 04:58:30 10° S visible
